Weather in Koktal

Kazakhstan     44°08′13″N   79°48′46″E
В апреле 2022 года жителям России запретили посещать сайт meteo.paraplan.net по решению Генеральной прокуратуры. Аудитория сайта уменьшилась в 10 раз. Владельцы сайта не видят смысла в поддержке погодного сервера в таких условиях. Сайт будет закрыт в октябре.
temp.,
°C
wind,
m/s
gust,
m/s
humid.,
%
clouds,
%
prec.,
mm/h
press.,
hPa
HPBL,
m
25 september, sun
sun2500:00+18nne224020 0.4 101217
03:00+17nne22402 0.1 101216
06:00+17nne33413 0.3 101322
09:00+20e33350 0.0 1013367
12:00+24se22280 0.0 10121092
15:00+26ssw33220 0.0 10101985
18:00+24ssw33250 0.0 101046
21:00+20nne11310 0.0 101211
26 september, mon
mon2600:00+19n33330 0.0 101321
03:00+18nne33350 0.0 101419
06:00+16ne33360 0.0 101526
09:00+21e34280 0.0 1016397
12:00+25se22220 0.0 10141092
15:00+28ssw45170 0.0 10111568
18:00+25ssw34215 0.0 101158
21:00+21n332567 0.0 101226
27 september, tue
tue2700:00+19nnw322295 0.0 101216
03:00+18n1224100 0.0 101214
06:00+17ene0129100 0.0 101311
09:00+20sse112698 0.0 1015282
12:00+25ssw461724 0.0 10131786
15:00+27w610151 0.0 10113047
18:00+23wsw58211 0.0 1011229
21:00+18wnw343159 0.0 101369
28 september, wed
wed2800:00+16ne3433100 0.0 101483
03:00+15ene2442100 0.0 1014158
06:00+14e1243100 0.0 101567
09:00+15e2238100 0.0 1016394
12:00+18sse232898 0.0 10151140
15:00+22ssw5715100 0.0 10111791
18:00+20sw71017100 0.0 1011420
21:00+17wnw3421100 0.0 1012103
29 september, thu
thu2900:00+15ne2325100 0.0 101361
03:00+14ne242986 0.0 1014121
06:00+13ne233192 0.0 101477
09:00+16e332756 0.0 1015472
12:00+19sse12215 0.0 10131329
15:00+21ssw5718100 0.0 10101590
18:00+20sw5922100 0.0 1010471
21:00+17nnw2226100 0.0 101140